Lid_Strength_Index
0 0 0 1 1 1 2 2 2 2 2 2 2 1 1 1 1 1 2 -1 -1 -1 -1 -2 -1 -1 -1 -1 -1 -1 -1 -1 -2 -1 -1 -1 -1 -1 -1 -1 -1 -1 -1
1 0 1 1 2 2 2 2 2 2 2 2 1 1 1 1 1 0 0 1 -1 -1 -1 -1 -1 -1 -1 -1 -1 -1 -1 -1 -1 -1 -1 -1 -1 -1 -1 -1 -1 -1 -1
3 1 0 1 2 2 2 2 2 3 3 2 2 1 1 1 2 1 1 0 2 1 1 0 0 -0 -1 -2 -1 -1 -1 -1 -1 -1 -1 -1 -0 -0 -0 -1 -1 -1 -1
2 2 2 1 2 2 2 2 2 3 3 3 3 2 2 1 1 0 0 1 2 1 -0 0 -1 -1 -1 -2 -1 -1 -1 -1 -1 -1 -1 -1 -0 -0 -0 -1 -1 -1 -0
1 1 1 1 1 1 2 2 3 3 3 3 2 1 1 1 1 0 0 -0 1 1 -0 0 -1 -1 -1 -1 -1 -1 -1 -1 -0 -1 -1 -1 -1 -0 -0 -0 -0 -0 -0
0 0 1 1 1 2 2 2 3 3 4 5 2 2 2 1 1 1 0 -0 -0 0 -0 -0 -0 -0 -1 -1 -1 -1 -1 -1 -1 -1 -1 -1 -0 -1 -1 -1 -1 -0 -0
0 1 1 2 2 2 3 2 2 3 4 4 5 4 3 1 2 2 1 1 1 0 0 -0 -0 -0 -0 -1 -1 -1 -1 -1 -1 -1 -0 -1 -0 -1 -1 -1 -1 -1 -0
1 1 2 2 2 2 2 2 3 3 4 4 5 5 6 4 3 2 2 2 2 1 0 0 0 0 0 0 -0 -1 -1 -1 -1 -1 -1 -0 -0 -1 -1 -1 -1 -0 -0
0 1 2 2 2 2 1 2 1 2 3 3 3 4 6 7 4 2 2 2 2 2 1 1 0 0 -0 -0 -0 -0 -1 -1 -1 -1 -1 -0 -1 -1 -1 -1 -1 -1 -1
2 2 2 2 3 4 4 3 3 2 1 3 2 1 2 3 6 6 3 2 4 1 1 1 1 0 -0 -0 -1 -1 -1 -1 -1 -1 -1 -1 -1 -1 -1 -1 -0 -0 -0
3 3 4 4 5 5 4 5 6 6 5 5 5 5 4 4 5 5 6 5 4 4 3 3 0 0 -0 -0 0 -1 -1 -1 -1 -0 -1 -1 -1 -1 -1 -1 -1 -1 -1
7 6 5 6 6 7 7 7 7 7 7 8 7 6 6 6 7 7 7 7 8 6 5 3 2 1 1 2 1 0 1 0 1 1 1 0 -1 -1 -1 -1 -1 -1 -1
8 8 7 8 8 8 8 8 9 8 8 8 7 7 7 7 7 8 8 8 8 7 5 4 3 2 3 4 3 2 1 -0 0 0 -0 -1 -0 -0 -0 -0 -1 -0 -0
8 7 6 7 7 8 8 9 8 8 8 8 8 8 8 8 8 8 8 8 10 9 7 7 5 4 5 5 3 2 3 2 0 1 1 1 0 -0 -0 -0 -0 0 -0
6 7 8 9 8 8 8 8 9 8 8 8 8 7 7 7 7 7 8 8 9 10 9 7 8 6 5 5 4 4 4 2 1 2 1 1 -0 -0 0 0 0 1 -0
7 7 8 9 9 9 9 10 9 7 7 7 7 7 7 7 7 7 8 9 9 9 9 8 7 6 6 6 4 4 5 2 2 2 2 1 1 2 1 1 1 1 -0
6 7 8 9 9 9 9 9 8 7 7 7 7 6 6 6 7 7 7 8 8 8 8 6 6 5 6 6 6 6 5 5 4 3 1 1 2 2 2 2 1 1 1
7 8 8 8 7 8 8 8 8 8 7 7 7 6 6 5 7 7 7 7 8 7 7 7 6 5 6 5 6 6 5 5 5 3 1 2 3 2 2 3 3 3 2
9 8 8 8 8 8 8 8 8 8 8 7 7 7 7 7 7 5 6 6 6 5 5 6 6 5 5 4 5 5 6 5 5 3 2 2 3 3 2 2 2 3 4
9 8 8 7 7 8 8 8 8 8 8 8 7 7 7 6 5 5 6 6 6 6 6 6 6 6 6 5 5 6 6 4 5 4 4 4 3 3 2 2 1 1 3
7 7 7 8 8 8 8 8 8 9 9 8 8 7 6 4 4 5 6 6 6 6 6 7 7 8 8 8 8 6 6 5 5 4 6 7 7 6 4 2 2 2 3
8 8 8 9 10 8 8 7 8 9 9 9 9 8 7 5 5 5 5 5 5 6 6 6 7 9 9 8 7 7 7 7 7 4 6 7 7 7 6 3 3 3 4
9 9 10 10 10 10 9 8 7 9 9 9 9 8 7 5 6 7 6 5 5 5 4 5 7 8 8 8 7 7 7 6 7 6 6 8 8 7 6 4 3 4 4
10 10 10 10 11 10 9 9 8 9 9 9 7 6 6 6 6 7 7 7 6 6 5 5 6 6 6 7 7 6 6 6 5 6 6 9 7 6 5 3 4 4 4
10 9 10 10 11 11 9 9 9 9 9 9 7 6 6 7 8 8 7 7 7 7 5 5 6 6 8 7 6 5 6 7 7 6 5 6 6 6 5 4 2 3 4
9 8 9 10 9 11 9 10 10 10 10 9 9 8 7 7 8 9 9 8 8 7 7 5 5 5 5 6 5 6 6 7 7 7 5 6 6 6 7 3 3 2 2